EHI
0 0 0 0 0 0 0 0 0 0 0 0 0 0 0 0 0 1 2 1 0 0 0 0 0 0 0 0 0 0 0 0 0 0 0 0 0 0
0 0 0 0 0 0 0 0 0 0 0 0 0 0 0 0 0 1 1 1 0 0 0 0 0 0 0 0 0 0 0 0 0 0 0 0 0 0
0 0 0 0 0 0 0 0 0 0 0 0 0 0 0 0 0 0 0 0 0 0 0 0 0 0 0 0 0 0 0 0 0 0 0 0 0 0
0 0 0 0 0 0 0 0 0 0 0 0 0 0 0 0 0 0 0 0 0 0 0 0 0 0 0 0 0 0 0 0 0 0 0 0 0 0
0 0 0 0 0 0 0 0 0 0 0 0 0 0 0 0 0 0 0 0 0 0 0 0 0 0 0 0 0 0 0 0 0 0 0 0 0 0
0 0 0 0 0 0 0 0 0 0 0 0 0 0 0 0 0 0 0 0 0 0 0 0 0 0 0 0 0 0 0 0 0 0 0 0 0 0
0 0 0 0 0 0 0 0 0 0 0 0 0 0 0 0 0 0 0 0 0 0 0 0 0 0 0 0 0 0 0 0 0 0 0 0 0 0
0 0 0 0 0 0 0 0 0 0 0 0 0 0 0 0 0 0 0 0 0 0 0 0 0 0 0 0 0 0 0 0 0 0 0 0 0 0
0 0 0 0 0 0 0 0 0 0 0 0 0 0 0 0 0 0 0 0 0 0 0 0 0 0 0 0 0 0 0 0 0 0 0 0 0 0
0 0 0 0 0 0 0 0 0 0 0 0 0 0 0 0 0 0 0 0 0 0 0 0 0 0 0 0 0 0 0 0 0 0 0 0 0 0
0 0 0 0 0 0 0 0 0 0 0 0 0 0 0 0 0 0 0 0 0 0 0 0 0 0 0 0 0 0 0 0 0 0 0 0 0 0
0 0 0 0 0 0 0 0 0 0 0 0 0 0 0 0 0 0 0 0 0 0 0 0 0 0 0 0 0 0 0 0 0 0 0 0 0 0
0 0 0 0 0 0 0 0 0 0 0 0 0 0 0 0 0 0 0 0 0 0 0 0 0 0 0 0 0 0 0 0 0 0 0 0 0 0
0 0 0 0 0 0 0 0 0 0 0 0 0 0 0 0 0 0 0 0 0 0 0 0 0 0 0 0 0 0 0 0 0 0 0 0 0 0
0 0 0 0 0 0 0 0 0 0 0 0 0 0 0 0 0 0 0 0 0 0 0 0 0 0 0 0 0 0 0 0 0 0 0 0 0 0
0 0 0 0 0 0 0 0 0 0 0 0 0 0 0 0 0 0 0 0 0 0 0 0 0 0 0 0 0 0 0 0 0 0 0 0 0 0
0 0 0 0 0 0 0 0 0 0 0 0 0 0 0 0 0 0 0 0 0 0 0 0 0 0 0 0 0 0 0 0 0 0 0 0 0 0
0 0 0 0 0 0 0 0 0 0 0 0 0 0 0 0 0 0 0 0 0 0 0 0 0 0 0 0 0 0 0 0 0 0 0 0 0 0
0 0 0 0 0 0 0 0 0 0 0 0 0 0 0 0 0 0 0 0 0 0 0 0 0 0 0 0 0 0 0 0 0 0 0 0 0 0
0 0 0 0 0 0 0 0 0 0 0 0 0 0 0 0 0 0 0 0 0 0 0 0 0 0 0 0 0 0 0 0 0 0 0 0 0 0
0 0 0 0 0 0 0 0 0 0 0 0 0 0 0 0 0 0 0 0 0 0 0 0 0 0 0 0 0 0 0 0 0 0 0 0 0 0
0 0 0 0 0 0 0 0 0 0 0 0 0 0 0 0 0 0 0 0 0 0 0 0 0 0 0 0 0 0 0 0 0 0 0 0 0 0
0 0 0 0 0 0 0 0 0 0 0 0 0 0 0 0 0 0 0 0 0 0 0 0 0 0 0 0 0 0 0 0 0 0 0 0 0 0
Wind_Speed
2 2 3 2 3 3 3 4 5 6 4 2 3 3 5 5 5 6 4 4 4 4 5 7 9 10 11 12 15 16 17 16 17 22 27 29 30 29
0 2 2 2 2 3 3 3 4 5 5 4 4 6 7 5 4 6 5 3 6 5 5 6 8 10 11 12 12 13 14 15 18 23 27 27 26 26
2 2 3 4 3 3 3 3 3 4 6 5 4 4 6 6 4 4 3 4 4 5 5 6 8 9 11 11 10 10 12 15 19 25 27 26 24 23
5 4 4 3 4 4 4 5 4 4 6 7 6 5 5 6 6 5 4 4 3 3 3 5 7 8 9 9 8 8 11 15 20 24 25 25 23 21
6 5 5 5 5 5 6 6 5 5 4 4 5 4 4 6 7 6 5 4 4 3 2 4 5 6 7 7 5 5 10 15 19 21 22 22 20 19
7 7 7 7 7 6 4 5 6 5 4 4 5 5 6 7 7 8 7 4 3 1 1 2 3 4 3 4 2 3 9 13 17 18 18 18 17 16
9 9 9 8 8 7 7 7 7 6 6 6 7 7 8 9 9 8 8 6 2 2 1 1 2 3 2 1 2 5 9 12 15 16 16 16 15 14
9 8 8 8 6 6 6 8 9 8 9 8 8 8 9 9 7 6 7 6 5 4 2 1 2 3 4 3 5 7 9 11 13 14 15 14 14 12
8 7 8 9 8 7 5 5 8 6 5 8 10 10 10 9 9 8 7 5 4 5 3 3 4 3 3 3 5 7 8 9 11 12 12 13 12 12
7 7 8 9 9 9 7 8 9 9 8 8 8 8 9 9 9 7 4 0 2 2 3 3 3 3 3 2 3 4 6 7 8 9 10 11 11 11
7 7 7 8 11 12 6 6 6 5 5 3 2 3 3 5 9 9 9 7 5 4 4 2 1 1 2 2 2 1 4 6 8 9 10 11 11 11
5 6 10 9 10 12 8 7 7 7 6 4 2 2 4 6 7 10 10 9 8 6 7 4 2 1 1 1 1 1 2 3 6 8 10 11 11 9
3 3 7 8 9 9 7 7 5 8 5 5 5 6 6 6 8 9 9 8 8 7 8 6 4 4 2 1 2 1 2 3 4 5 7 9 11 10
2 3 7 6 6 7 6 7 9 8 5 6 6 7 7 8 8 8 7 6 5 6 8 8 5 5 4 2 1 2 3 3 4 5 5 7 8 9
4 7 4 1 3 4 5 6 6 6 7 7 7 7 7 7 7 6 6 4 2 3 7 8 8 6 5 3 3 1 0 2 2 3 4 5 5 5
5 6 4 1 2 3 2 1 5 7 7 7 7 7 7 7 6 7 8 7 6 4 6 7 7 7 5 5 4 4 3 1 0 1 2 2 2 2
2 5 6 5 4 4 4 5 6 6 6 7 7 7 7 7 7 7 7 7 6 7 7 7 7 4 5 6 4 5 5 4 3 2 1 2 2 2
4 4 4 3 3 4 4 4 6 6 7 6 7 7 7 7 7 7 7 7 7 7 7 8 8 7 2 4 7 7 5 6 5 4 3 2 1 2
4 4 4 3 3 3 4 5 5 5 5 6 6 7 7 6 6 7 7 8 8 7 7 7 8 9 9 6 3 4 7 6 6 5 4 4 3 1
4 4 4 3 2 2 3 4 4 4 5 5 6 6 6 6 6 7 6 8 8 7 7 6 7 8 9 9 8 4 2 6 6 6 6 4 3 2
5 4 4 3 2 1 1 1 2 3 4 5 5 5 6 6 6 6 6 5 6 6 7 7 6 7 8 7 7 5 2 1 2 5 7 6 4 3
5 5 4 3 3 2 2 2 2 1 2 4 4 4 5 5 6 6 6 7 6 7 8 7 7 7 7 7 8 8 7 5 1 4 3 3 5 4
6 5 5 5 5 4 4 4 3 3 2 3 4 4 5 5 5 6 6 7 7 7 8 7 7 7 7 7 7 7 9 8 6 5 2 3 5 7
Wind_Direction
239 246 284 315 302 318 316 318 320 318 325 3 345 358 338 328 326 302 293 154 198 227 247 260 267 268 268 266 255 242 232 222 207 192 183 181 181 183
343 4 331 325 329 316 314 312 304 302 306 319 320 327 331 319 307 301 299 181 216 229 250 268 278 279 280 278 264 239 219 206 191 179 176 175 178 183
83 59 42 11 351 338 338 325 309 301 293 298 295 309 306 309 310 292 273 252 229 220 250 273 283 287 288 290 275 238 210 194 181 174 172 173 176 180
66 55 40 40 27 9 349 350 338 315 300 310 317 319 317 321 314 297 278 257 246 211 251 285 291 296 299 301 283 237 204 185 174 170 170 171 174 173
69 63 51 42 29 25 0 358 343 339 338 321 335 346 344 351 338 329 304 276 250 205 229 273 291 306 313 314 294 226 190 174 166 164 165 166 168 171
74 65 54 42 26 8 9 10 1 360 26 22 25 24 18 10 8 358 347 321 279 244 356 348 323 297 321 344 335 176 166 160 157 155 155 157 161 168
82 72 62 55 42 17 15 15 14 16 34 40 41 37 28 17 14 3 356 345 359 13 318 315 312 306 315 67 80 135 147 147 148 150 152 156 161 169
85 83 86 69 87 81 56 41 24 23 24 24 40 34 27 16 7 10 9 9 9 358 337 347 346 327 326 346 102 126 143 148 151 154 158 164 170 179
75 61 57 55 32 60 106 129 77 54 17 21 42 26 21 11 356 10 27 28 21 348 355 26 6 343 348 38 120 139 146 152 157 163 169 177 185 194
79 69 64 53 28 4 51 62 62 54 38 38 39 32 28 3 348 349 352 50 121 55 29 38 18 355 351 37 108 152 164 170 175 181 187 194 203 211
80 58 47 57 17 351 35 52 51 59 109 98 11 330 310 347 352 358 1 358 18 63 39 26 14 7 13 30 51 115 181 192 199 204 209 213 216 220
116 107 69 40 18 2 21 34 32 17 7 31 36 4 16 30 24 13 4 0 2 23 26 357 4 21 83 77 65 178 178 193 201 208 212 215 214 219
110 97 76 41 27 13 12 35 359 313 338 2 15 16 16 17 18 23 13 7 6 11 5 350 351 359 24 108 148 184 205 186 185 196 203 206 205 211
57 65 78 54 44 32 36 7 328 324 6 11 13 12 11 9 9 9 15 14 14 15 6 355 348 348 340 349 130 175 193 203 196 186 179 188 209 222
69 61 62 104 203 116 61 342 344 14 12 8 6 5 2 4 347 350 354 345 314 46 26 5 353 344 332 335 345 1 215 183 197 190 179 181 187 192
142 137 160 176 138 101 156 32 42 30 1 2 358 354 350 350 355 357 349 345 348 14 35 12 359 350 342 345 358 13 14 21 81 175 185 179 179 191
169 170 165 157 139 96 72 49 30 25 14 10 2 355 353 352 355 359 350 341 350 358 3 3 355 4 33 10 6 5 4 5 15 19 270 192 173 181
257 158 138 123 92 67 46 47 47 31 14 11 8 1 355 353 355 357 355 352 352 355 357 357 351 343 338 74 21 6 6 360 353 351 333 306 217 164
216 145 134 118 95 73 50 38 40 44 12 9 12 3 355 353 359 356 4 357 350 350 350 356 358 350 338 342 45 24 355 350 343 345 348 336 319 321
199 153 149 138 113 61 42 32 26 27 17 7 14 5 357 357 1 353 8 8 344 345 347 1 9 351 330 324 318 318 16 342 344 340 336 323 312 291
179 172 176 173 164 153 56 5 5 15 14 343 12 4 356 356 2 353 357 7 327 347 348 359 10 310 297 305 306 319 357 117 332 328 328 319 317 303
184 187 190 198 212 235 239 267 294 330 336 333 7 355 351 350 352 344 348 343 344 350 344 344 347 335 338 340 336 339 343 341 216 202 258 303 322 328
193 199 197 202 214 227 243 243 256 289 312 336 341 341 344 342 336 340 340 337 340 343 336 339 345 344 347 345 343 348 350 346 341 324 294 212 243 262